Time,TemperatureF,DewpointF,PressureIn,WindDirection,WindDirectionDegrees,WindSpeedMPH,WindSpeedGustMPH,Humidity,HourlyPrecipIn,Conditions,Clouds,dailyrainin,SoftwareType,DateUTC
2013-03-19 00:00:00,28.0,21.0,29.75,WNW,292,1.6,5.1,70,0.00,,,0.00,Rainwise IP-100,2013-03-19 04:00:00,
2013-03-19 00:05:00,28.0,21.0,29.75,ESE,112,0.0,6.1,71,0.00,,,0.00,Rainwise IP-100,2013-03-19 04:05:00,
2013-03-19 00:10:00,27.7,21.0,29.74,NNE,22,1.6,7.2,72,0.00,,,0.00,Rainwise IP-100,2013-03-19 04:10:00,
2013-03-19 00:15:00,27.4,21.0,29.74,SE,135,3.3,3.3,74,0.00,,,0.00,Rainwise IP-100,2013-03-19 04:15:00,
2013-03-19 00:20:00,27.4,21.0,29.73,SSW,202,0.0,4.4,76,0.00,,,0.00,Rainwise IP-100,2013-03-19 04:20:00,
2013-03-19 00:25:00,27.3,23.0,29.73,SW,225,0.0,1.9,77,0.00,,,0.00,Rainwise IP-100,2013-03-19 04:25:00,
2013-03-19 00:30:00,27.2,23.0,29.72,SSW,202,0.0,3.7,79,0.00,,,0.00,Rainwise IP-100,2013-03-19 04:30:00,
2013-03-19 00:35:00,27.0,23.0,29.72,ENE,67,0.0,5.1,81,0.00,,,0.00,Rainwise IP-100,2013-03-19 04:35:00,
2013-03-19 00:36:00,26.9,23.0,29.72,SSE,157,1.9,5.1,81,0.00,,,0.00,Rainwise IP-100,2013-03-19 04:36:00,
2013-03-19 00:41:00,26.8,23.0,29.71,East,90,0.0,4.9,82,0.00,,,0.00,Rainwise IP-100,2013-03-19 04:41:00,
2013-03-19 00:46:00,26.6,24.0,29.71,East,90,0.0,1.9,84,0.00,,,0.00,Rainwise IP-100,2013-03-19 04:46:00,
2013-03-19 00:51:00,26.5,24.0,29.71,SSE,157,0.0,1.9,84,0.00,,,0.00,Rainwise IP-100,2013-03-19 04:51:00,
2013-03-19 00:57:00,26.6,24.0,29.71,SE,135,0.0,3.0,85,0.00,,,0.00,Rainwise IP-100,2013-03-19 04:57:00,
2013-03-19 01:02:00,26.6,24.0,29.70,South,180,0.0,2.3,86,0.00,,,0.00,Rainwise IP-100,2013-03-19 05:02:00,
2013-03-19 01:06:00,26.6,24.0,29.70,East,90,0.0,3.3,87,0.00,,,0.00,Rainwise IP-100,2013-03-19 05:06:00,
2013-03-19 01:12:00,26.7,24.0,29.69,WSW,247,2.1,5.6,87,0.00,,,0.00,Rainwise IP-100,2013-03-19 05:12:00,
2013-03-19 01:17:00,26.8,24.0,29.70,NE,45,0.0,5.4,86,0.00,,,0.00,Rainwise IP-100,2013-03-19 05:17:00,
2013-03-19 01:22:00,26.8,24.0,29.69,South,180,1.4,7.2,86,0.00,,,0.00,Rainwise IP-100,2013-03-19 05:22:00,
2013-03-19 01:27:00,26.8,24.0,29.69,SW,225,3.7,3.7,87,0.00,,,0.00,Rainwise IP-100,2013-03-19 05:27:00,
2013-03-19 01:32:00,26.8,24.0,29.69,SSW,202,2.3,5.6,87,0.00,,,0.00,Rainwise IP-100,2013-03-19 05:32:00,
2013-03-19 01:37:00,26.9,24.0,29.69,WSW,247,1.2,3.7,88,0.00,,,0.00,Rainwise IP-100,2013-03-19 05:37:00,
2013-03-19 01:42:00,27.0,24.0,29.68,SSW,202,1.2,5.1,88,0.00,,,0.00,Rainwise IP-100,2013-03-19 05:42:00,
2013-03-19 01:47:00,27.0,24.0,29.68,SSW,202,1.4,3.0,88,0.00,,,0.00,Rainwise IP-100,2013-03-19 05:47:00,
2013-03-19 01:53:00,27.1,24.0,29.68,NNW,337,0.0,1.9,88,0.00,,,0.00,Rainwise IP-100,2013-03-19 05:53:00,
2013-03-19 01:58:00,27.2,24.0,29.67,SSE,157,3.5,4.0,88,0.00,,,0.00,Rainwise IP-100,2013-03-19 05:58:00,
2013-03-19 02:03:00,27.2,24.0,29.67,SSW,202,0.0,3.5,88,0.00,,,0.00,Rainwise IP-100,2013-03-19 06:03:00,
2013-03-19 02:08:00,27.1,24.0,29.66,NW,315,0.0,2.6,88,0.00,,,0.00,Rainwise IP-100,2013-03-19 06:08:00,
2013-03-19 02:13:00,27.0,24.0,29.66,ESE,112,0.0,4.4,88,0.00,,,0.00,Rainwise IP-100,2013-03-19 06:13:00,
2013-03-19 02:18:00,27.0,24.0,29.66,SSW,202,0.0,2.8,89,0.00,,,0.00,Rainwise IP-100,2013-03-19 06:18:00,
2013-03-19 02:23:00,27.0,24.0,29.66,SSW,202,0.0,1.2,89,0.00,,,0.00,Rainwise IP-100,2013-03-19 06:23:00,
2013-03-19 02:28:00,27.0,24.0,29.65,SE,135,0.0,1.6,89,0.00,,,0.00,Rainwise IP-100,2013-03-19 06:28:00,
2013-03-19 02:33:00,26.9,24.0,29.66,South,180,1.2,1.6,89,0.00,,,0.00,Rainwise IP-100,2013-03-19 06:33:00,
2013-03-19 02:38:00,26.8,26.0,29.65,WSW,247,1.2,2.3,90,0.00,,,0.00,Rainwise IP-100,2013-03-19 06:38:00,
2013-03-19 02:43:00,26.8,26.0,29.65,East,90,0.0,2.8,90,0.00,,,0.00,Rainwise IP-100,2013-03-19 06:43:00,
2013-03-19 02:48:00,27.0,26.0,29.65,NW,315,0.0,2.1,90,0.00,,,0.00,Rainwise IP-100,2013-03-19 06:48:00,
2013-03-19 02:53:00,27.0,26.0,29.64,SSE,157,1.6,4.0,90,0.00,,,0.00,Rainwise IP-100,2013-03-19 06:53:00,
2013-03-19 02:58:00,27.0,26.0,29.64,SSW,202,0.0,2.8,90,0.00,,,0.00,Rainwise IP-100,2013-03-19 06:58:00,
2013-03-19 03:03:00,27.0,26.0,29.64,SSW,202,0.0,4.2,90,0.00,,,0.00,Rainwise IP-100,2013-03-19 07:03:00,
2013-03-19 03:09:00,27.0,26.0,29.64,SSW,202,2.3,3.0,90,0.00,,,0.00,Rainwise IP-100,2013-03-19 07:09:00,
2013-03-19 03:14:00,27.1,26.0,29.64,SW,225,2.6,2.6,90,0.00,,,0.00,Rainwise IP-100,2013-03-19 07:14:00,
2013-03-19 03:19:00,27.0,26.0,29.64,SSW,202,0.0,5.4,90,0.00,,,0.00,Rainwise IP-100,2013-03-19 07:19:00,
2013-03-19 03:24:00,27.0,26.0,29.63,SSW,202,4.4,6.1,90,0.00,,,0.00,Rainwise IP-100,2013-03-19 07:24:00,
2013-03-19 03:29:00,26.9,26.0,29.64,SW,225,1.9,5.4,90,0.00,,,0.00,Rainwise IP-100,2013-03-19 07:29:00,
2013-03-19 03:34:00,26.9,26.0,29.62,SSW,202,0.0,1.9,91,0.00,,,0.00,Rainwise IP-100,2013-03-19 07:34:00,
2013-03-19 03:39:00,26.9,26.0,29.62,SSW,202,1.4,2.6,91,0.00,,,0.00,Rainwise IP-100,2013-03-19 07:39:00,
2013-03-19 03:44:00,26.9,26.0,29.63,SSW,202,1.2,5.1,92,0.00,,,0.00,Rainwise IP-100,2013-03-19 07:44:00,
2013-03-19 03:49:00,26.8,26.0,29.62,SSW,202,1.2,2.6,92,0.00,,,0.00,Rainwise IP-100,2013-03-19 07:49:00,
2013-03-19 03:54:00,26.7,26.0,29.62,WSW,247,1.4,3.0,92,0.00,,,0.00,Rainwise IP-100,2013-03-19 07:54:00,
2013-03-19 03:59:00,26.6,26.0,29.61,SSE,157,3.7,4.0,92,0.00,,,0.00,Rainwise IP-100,2013-03-19 07:59:00,
2013-03-19 04:04:00,26.6,26.0,29.61,SSW,202,5.1,5.1,93,0.00,,,0.00,Rainwise IP-100,2013-03-19 08:04:00,
2013-03-19 04:09:00,26.6,26.0,29.62,WSW,247,2.3,10.7,93,0.00,,,0.00,Rainwise IP-100,2013-03-19 08:09:00,
2013-03-19 04:14:00,26.6,26.0,29.61,WSW,247,3.0,5.1,93,0.00,,,0.00,Rainwise IP-100,2013-03-19 08:14:00,
2013-03-19 04:19:00,26.6,26.0,29.61,SSW,202,0.0,4.7,93,0.00,,,0.00,Rainwise IP-100,2013-03-19 08:19:00,
2013-03-19 04:25:00,26.5,26.0,29.61,NNW,337,0.0,1.9,93,0.00,,,0.00,Rainwise IP-100,2013-03-19 08:25:00,
2013-03-19 04:30:00,26.6,26.0,29.61,NNW,337,0.0,1.4,93,0.00,,,0.00,Rainwise IP-100,2013-03-19 08:30:00,
2013-03-19 04:35:00,26.6,26.0,29.61,SSE,157,3.7,4.4,94,0.00,,,0.00,Rainwise IP-100,2013-03-19 08:35:00,
2013-03-19 04:40:00,26.6,26.0,29.61,SSE,157,3.0,5.4,94,0.00,,,0.00,Rainwise IP-100,2013-03-19 08:40:00,
2013-03-19 04:45:00,26.6,26.0,29.60,SSW,202,0.0,6.1,94,0.00,,,0.00,Rainwise IP-100,2013-03-19 08:45:00,
2013-03-19 04:50:00,26.6,26.0,29.59,SSW,202,0.0,0.0,94,0.00,,,0.00,Rainwise IP-100,2013-03-19 08:50:00,
2013-03-19 04:55:00,26.6,26.0,29.59,WSW,247,1.6,2.6,94,0.00,,,0.00,Rainwise IP-100,2013-03-19 08:55:00,
2013-03-19 05:00:00,26.6,26.0,29.59,SSW,202,1.9,3.0,95,0.00,,,0.00,Rainwise IP-100,2013-03-19 09:00:00,
2013-03-19 05:05:00,26.6,26.0,29.59,SW,225,0.0,3.5,95,0.00,,,0.00,Rainwise IP-100,2013-03-19 09:05:00,
2013-03-19 05:10:00,26.6,26.0,29.59,SSE,157,3.7,6.1,94,0.00,,,0.00,Rainwise IP-100,2013-03-19 09:10:00,
2013-03-19 05:15:00,26.7,26.0,29.58,SSE,157,7.7,8.2,94,0.00,,,0.00,Rainwise IP-100,2013-03-19 09:15:00,
2013-03-19 05:20:00,26.7,26.0,29.59,SSW,202,3.3,10.5,94,0.00,,,0.00,Rainwise IP-100,2013-03-19 09:20:00,
2013-03-19 05:25:00,26.8,26.0,29.58,SSW,202,5.1,7.2,94,0.00,,,0.00,Rainwise IP-100,2013-03-19 09:25:00,
2013-03-19 05:30:00,26.9,26.0,29.59,SSW,202,2.8,9.3,94,0.00,,,0.00,Rainwise IP-100,2013-03-19 09:30:00,
2013-03-19 05:35:00,26.9,26.0,29.59,SSW,202,6.8,6.8,94,0.00,,,0.00,Rainwise IP-100,2013-03-19 09:35:00,
2013-03-19 05:41:00,27.0,26.0,29.58,SW,225,4.7,11.0,94,0.00,,,0.00,Rainwise IP-100,2013-03-19 09:41:00,
2013-03-19 05:46:00,27.0,26.0,29.58,SE,135,2.8,6.8,94,0.00,,,0.00,Rainwise IP-100,2013-03-19 09:46:00,
2013-03-19 05:51:00,27.0,26.0,29.58,SW,225,2.1,4.2,94,0.00,,,0.00,Rainwise IP-100,2013-03-19 09:51:00,
2013-03-19 05:56:00,27.0,26.0,29.58,SSW,202,0.0,8.9,94,0.00,,,0.00,Rainwise IP-100,2013-03-19 09:56:00,
2013-03-19 06:01:00,27.0,26.0,29.58,SE,135,2.6,9.3,94,0.00,,,0.00,Rainwise IP-100,2013-03-19 10:01:00,
2013-03-19 06:06:00,27.1,26.0,29.58,SSE,157,4.0,10.3,94,0.00,,,0.00,Rainwise IP-100,2013-03-19 10:06:00,
2013-03-19 06:12:00,27.3,26.0,29.57,SW,225,0.0,11.2,94,0.00,,,0.00,Rainwise IP-100,2013-03-19 10:12:00,
2013-03-19 06:17:00,27.4,26.0,29.57,SSW,202,1.4,12.8,94,0.00,,,0.00,Rainwise IP-100,2013-03-19 10:17:00,
2013-03-19 06:22:00,27.4,26.0,29.57,SSW,202,4.0,5.8,94,0.00,,,0.00,Rainwise IP-100,2013-03-19 10:22:00,
2013-03-19 06:27:00,27.4,26.0,29.57,SSE,157,6.3,6.5,94,0.00,,,0.00,Rainwise IP-100,2013-03-19 10:27:00,
2013-03-19 06:32:00,27.4,26.0,29.57,South,180,3.0,7.7,94,0.00,,,0.00,Rainwise IP-100,2013-03-19 10:32:00,
2013-03-19 06:37:00,27.4,26.0,29.57,WSW,247,1.4,6.3,94,0.00,,,0.00,Rainwise IP-100,2013-03-19 10:37:00,
2013-03-19 06:42:00,27.4,26.0,29.57,SSE,157,5.6,9.1,93,0.00,,,0.00,Rainwise IP-100,2013-03-19 10:42:00,
2013-03-19 06:47:00,27.6,26.0,29.57,SSW,202,1.6,8.6,93,0.00,,,0.00,Rainwise IP-100,2013-03-19 10:47:00,
2013-03-19 06:52:00,27.7,26.0,29.57,WSW,247,5.1,6.8,94,0.00,,,0.00,Rainwise IP-100,2013-03-19 10:52:00,
2013-03-19 06:57:00,27.7,26.0,29.57,NE,45,0.0,6.8,94,0.00,,,0.00,Rainwise IP-100,2013-03-19 10:57:00,
2013-03-19 07:02:00,27.7,26.0,29.57,SW,225,3.3,9.8,94,0.00,,,0.00,Rainwise IP-100,2013-03-19 11:02:00,
2013-03-19 07:07:00,27.7,26.0,29.57,SSW,202,4.9,10.7,94,0.00,,,0.00,Rainwise IP-100,2013-03-19 11:07:00,
2013-03-19 07:13:00,27.8,26.0,29.56,South,180,0.0,7.5,94,0.00,,,0.00,Rainwise IP-100,2013-03-19 11:13:00,
2013-03-19 07:18:00,27.8,26.0,29.56,SSE,157,3.3,10.5,94,0.00,,,0.00,Rainwise IP-100,2013-03-19 11:18:00,
2013-03-19 07:23:00,27.9,26.0,29.56,WSW,247,1.9,5.1,93,0.00,,,0.00,Rainwise IP-100,2013-03-19 11:23:00,
2013-03-19 07:28:00,27.9,26.0,29.56,SSW,202,3.0,4.7,93,0.00,,,0.00,Rainwise IP-100,2013-03-19 11:28:00,
2013-03-19 07:33:00,27.9,26.0,29.56,SE,135,0.0,7.5,93,0.00,,,0.00,Rainwise IP-100,2013-03-19 11:33:00,
2013-03-19 07:38:00,27.9,26.0,29.55,SSE,157,2.8,4.7,93,0.00,,,0.00,Rainwise IP-100,2013-03-19 11:38:00,
2013-03-19 07:43:00,27.9,26.0,29.55,NNW,337,0.0,9.3,93,0.00,,,0.00,Rainwise IP-100,2013-03-19 11:43:00,
2013-03-19 07:48:00,27.9,26.0,29.55,ENE,67,4.4,5.8,93,0.00,,,0.00,Rainwise IP-100,2013-03-19 11:48:00,
2013-03-19 07:53:00,28.0,26.0,29.54,SSW,202,2.8,6.5,93,0.00,,,0.00,Rainwise IP-100,2013-03-19 11:53:00,
2013-03-19 07:58:00,28.1,26.0,29.54,SSW,202,4.2,10.0,92,0.00,,,0.00,Rainwise IP-100,2013-03-19 11:58:00,
2013-03-19 08:03:00,28.2,26.0,29.54,WSW,247,0.0,5.8,92,0.00,,,0.00,Rainwise IP-100,2013-03-19 12:03:00,
2013-03-19 08:08:00,28.2,26.0,29.54,SSW,202,4.4,6.5,92,0.00,,,0.00,Rainwise IP-100,2013-03-19 12:08:00,
2013-03-19 08:13:00,28.3,26.0,29.53,SSE,157,1.6,6.5,93,0.00,,,0.00,Rainwise IP-100,2013-03-19 12:13:00,
2013-03-19 08:18:00,28.3,26.0,29.53,SSW,202,2.6,5.6,93,0.00,,,0.00,Rainwise IP-100,2013-03-19 12:18:00,
2013-03-19 08:23:00,28.3,26.0,29.53,South,180,1.6,6.1,93,0.00,,,0.00,Rainwise IP-100,2013-03-19 12:23:00,
2013-03-19 08:29:00,28.3,26.0,29.53,SW,225,3.5,4.9,92,0.00,,,0.00,Rainwise IP-100,2013-03-19 12:29:00,
2013-03-19 08:34:00,28.4,26.0,29.53,South,180,1.6,4.2,92,0.00,,,0.00,Rainwise IP-100,2013-03-19 12:34:00,
2013-03-19 08:39:00,28.4,26.0,29.53,South,180,0.0,4.0,93,0.00,,,0.00,Rainwise IP-100,2013-03-19 12:39:00,
2013-03-19 08:44:00,28.4,26.0,29.52,WSW,247,3.7,6.8,93,0.00,,,0.00,Rainwise IP-100,2013-03-19 12:44:00,
2013-03-19 08:49:00,28.4,26.0,29.52,ESE,112,2.1,7.0,92,0.00,,,0.00,Rainwise IP-100,2013-03-19 12:49:00,
2013-03-19 08:54:00,28.5,28.0,29.51,WSW,247,1.6,5.6,92,0.00,,,0.00,Rainwise IP-100,2013-03-19 12:54:00,
2013-03-19 08:59:00,28.5,28.0,29.51,SSE,157,0.0,4.4,91,0.00,,,0.00,Rainwise IP-100,2013-03-19 12:59:00,
2013-03-19 09:04:00,28.6,28.0,29.51,SSW,202,0.0,8.4,91,0.00,,,0.00,Rainwise IP-100,2013-03-19 13:04:00,
2013-03-19 09:09:00,28.7,28.0,29.51,SSE,157,1.6,7.0,91,0.00,,,0.00,Rainwise IP-100,2013-03-19 13:09:00,
2013-03-19 09:14:00,28.8,26.0,29.51,WSW,247,0.0,6.3,90,0.00,,,0.00,Rainwise IP-100,2013-03-19 13:14:00,
2013-03-19 09:19:00,28.9,26.0,29.50,SSW,202,0.0,4.2,90,0.00,,,0.00,Rainwise IP-100,2013-03-19 13:19:00,
2013-03-19 09:24:00,29.0,26.0,29.49,SSW,202,5.8,6.8,90,0.00,,,0.00,Rainwise IP-100,2013-03-19 13:24:00,
2013-03-19 09:29:00,29.1,26.0,29.50,SSE,157,3.5,11.4,89,0.00,,,0.00,Rainwise IP-100,2013-03-19 13:29:00,
2013-03-19 09:34:00,29.2,26.0,29.49,SE,135,0.0,10.0,88,0.00,,,0.00,Rainwise IP-100,2013-03-19 13:34:00,
2013-03-19 09:39:00,29.3,26.0,29.49,SSE,157,7.9,9.6,88,0.00,,,0.00,Rainwise IP-100,2013-03-19 13:39:00,
2013-03-19 09:45:00,29.4,26.0,29.49,SSE,157,4.2,11.2,87,0.00,,,0.00,Rainwise IP-100,2013-03-19 13:45:00,
2013-03-19 09:50:00,29.5,28.0,29.49,SW,225,6.8,15.6,87,0.00,,,0.00,Rainwise IP-100,2013-03-19 13:50:00,
2013-03-19 09:55:00,29.6,28.0,29.49,ESE,112,4.9,17.3,86,0.00,,,0.00,Rainwise IP-100,2013-03-19 13:55:00,
2013-03-19 10:00:00,29.7,28.0,29.49,ESE,112,4.4,6.8,86,0.00,,,0.00,Rainwise IP-100,2013-03-19 14:00:00,
2013-03-19 10:05:00,29.8,28.0,29.49,SSE,157,9.6,12.4,86,0.00,,,0.00,Rainwise IP-100,2013-03-19 14:05:00,
2013-03-19 10:10:00,29.9,26.0,29.49,SSE,157,3.3,11.2,85,0.00,,,0.00,Rainwise IP-100,2013-03-19 14:10:00,
2013-03-19 10:15:00,29.9,26.0,29.48,WSW,247,6.1,14.2,85,0.00,,,0.00,Rainwise IP-100,2013-03-19 14:15:00,
2013-03-19 10:20:00,30.0,26.0,29.48,SSW,202,6.1,10.0,85,0.00,,,0.00,Rainwise IP-100,2013-03-19 14:20:00,
2013-03-19 10:25:00,30.1,26.0,29.49,SSE,157,6.3,9.8,85,0.00,,,0.00,Rainwise IP-100,2013-03-19 14:25:00,
2013-03-19 10:30:00,30.2,26.0,29.49,ENE,67,13.8,15.4,84,0.00,,,0.00,Rainwise IP-100,2013-03-19 14:30:00,
2013-03-19 10:35:00,30.3,26.0,29.49,SW,225,6.1,14.9,84,0.00,,,0.00,Rainwise IP-100,2013-03-19 14:35:00,
2013-03-19 10:40:00,30.3,26.0,29.48,SSE,157,6.3,12.4,84,0.00,,,0.00,Rainwise IP-100,2013-03-19 14:40:00,
2013-03-19 10:45:00,30.4,26.0,29.48,ESE,112,1.4,16.6,83,0.00,,,0.00,Rainwise IP-100,2013-03-19 14:45:00,
2013-03-19 10:50:00,30.4,26.0,29.47,SSE,157,3.0,12.6,83,0.00,,,0.00,Rainwise IP-100,2013-03-19 14:50:00,
2013-03-19 10:55:00,30.4,26.0,29.47,WSW,247,4.2,8.2,83,0.00,,,0.00,Rainwise IP-100,2013-03-19 14:55:00,
2013-03-19 11:01:00,30.5,26.0,29.46,SSW,202,6.3,12.8,83,0.00,,,0.00,Rainwise IP-100,2013-03-19 15:01:00,
2013-03-19 11:06:00,30.5,26.0,29.46,WSW,247,1.2,13.5,83,0.00,,,0.00,Rainwise IP-100,2013-03-19 15:06:00,
2013-03-19 11:11:00,30.5,26.0,29.46,ESE,112,3.3,11.2,83,0.00,,,0.00,Rainwise IP-100,2013-03-19 15:11:00,
2013-03-19 11:16:00,30.6,26.0,29.46,South,180,4.4,13.1,83,0.00,,,0.00,Rainwise IP-100,2013-03-19 15:16:00,
2013-03-19 11:21:00,30.7,26.0,29.45,SW,225,3.5,14.0,83,0.00,,,0.00,Rainwise IP-100,2013-03-19 15:21:00,
2013-03-19 11:26:00,30.9,26.0,29.45,SW,225,1.4,9.6,82,0.00,,,0.00,Rainwise IP-100,2013-03-19 15:26:00,
2013-03-19 11:31:00,31.1,26.0,29.44,SSE,157,5.1,7.0,82,0.00,,,0.00,Rainwise IP-100,2013-03-19 15:31:00,
2013-03-19 11:37:00,31.2,26.0,29.43,ENE,67,5.6,9.1,82,0.00,,,0.00,Rainwise IP-100,2013-03-19 15:37:00,
2013-03-19 11:42:00,31.5,28.0,29.43,SSW,202,4.7,8.9,82,0.00,,,0.00,Rainwise IP-100,2013-03-19 15:42:00,
2013-03-19 11:47:00,31.8,28.0,29.43,SSW,202,1.6,5.6,82,0.00,,,0.00,Rainwise IP-100,2013-03-19 15:47:00,
2013-03-19 11:52:00,32.0,28.0,29.43,NNE,22,0.0,5.1,81,0.00,,,0.00,Rainwise IP-100,2013-03-19 15:52:00,
2013-03-19 11:57:00,32.2,28.0,29.44,SSW,202,4.2,4.2,82,0.00,,,0.00,Rainwise IP-100,2013-03-19 15:57:00,
2013-03-19 12:02:00,32.4,28.0,29.44,SW,225,4.7,5.6,82,0.00,,,0.00,Rainwise IP-100,2013-03-19 16:02:00,
2013-03-19 12:07:00,32.5,28.0,29.44,ENE,67,1.6,6.5,81,0.00,,,0.00,Rainwise IP-100,2013-03-19 16:07:00,
2013-03-19 12:12:00,32.4,26.0,29.44,ENE,67,8.6,8.6,80,0.00,,,0.00,Rainwise IP-100,2013-03-19 16:12:00,
2013-03-19 12:17:00,32.3,26.0,29.44,SE,135,2.6,10.3,79,0.00,,,0.00,Rainwise IP-100,2013-03-19 16:17:00,
2013-03-19 12:22:00,32.4,26.0,29.44,ENE,67,4.9,10.0,78,0.00,,,0.00,Rainwise IP-100,2013-03-19 16:22:00,
2013-03-19 12:27:00,32.4,26.0,29.44,SSW,202,2.8,11.2,77,0.00,,,0.00,Rainwise IP-100,2013-03-19 16:27:00,
2013-03-19 12:33:00,32.4,26.0,29.45,SSE,157,8.4,8.4,77,0.00,,,0.00,Rainwise IP-100,2013-03-19 16:33:00,
2013-03-19 12:38:00,32.3,26.0,29.45,WSW,247,6.3,14.5,77,0.00,,,0.00,Rainwise IP-100,2013-03-19 16:38:00,
2013-03-19 12:43:00,32.2,26.0,29.45,WSW,247,3.5,10.7,77,0.00,,,0.00,Rainwise IP-100,2013-03-19 16:43:00,
2013-03-19 12:48:00,32.1,26.0,29.46,SSW,202,4.0,6.3,77,0.00,,,0.00,Rainwise IP-100,2013-03-19 16:48:00,
2013-03-19 12:53:00,32.1,26.0,29.46,South,180,7.9,9.1,77,0.00,,,0.00,Rainwise IP-100,2013-03-19 16:53:00,
2013-03-19 12:58:00,32.0,26.0,29.45,ESE,112,7.5,11.7,77,0.00,,,0.00,Rainwise IP-100,2013-03-19 16:58:00,
2013-03-19 13:03:00,31.9,26.0,29.44,SSW,202,2.6,7.7,78,0.00,,,0.00,Rainwise IP-100,2013-03-19 17:03:00,
2013-03-19 13:08:00,31.7,26.0,29.43,NNE,22,2.8,7.7,79,0.00,,,0.00,Rainwise IP-100,2013-03-19 17:08:00,
2013-03-19 13:13:00,31.5,26.0,29.44,ESE,112,5.6,7.2,80,0.00,,,0.00,Rainwise IP-100,2013-03-19 17:13:00,
2013-03-19 13:18:00,31.3,26.0,29.42,ESE,112,3.7,9.1,81,0.00,,,0.00,Rainwise IP-100,2013-03-19 17:18:00,
2013-03-19 13:23:00,31.1,26.0,29.43,East,90,1.2,6.3,82,0.00,,,0.00,Rainwise IP-100,2013-03-19 17:23:00,
2013-03-19 13:28:00,31.0,26.0,29.43,NNW,337,0.0,4.0,83,0.00,,,0.00,Rainwise IP-100,2013-03-19 17:28:00,
2013-03-19 13:33:00,30.8,26.0,29.41,SSE,157,1.2,7.2,84,0.00,,,0.00,Rainwise IP-100,2013-03-19 17:33:00,
2013-03-19 13:38:00,30.6,26.0,29.41,East,90,5.8,5.8,85,0.00,,,0.00,Rainwise IP-100,2013-03-19 17:38:00,
2013-03-19 13:43:00,30.3,28.0,29.41,SSW,202,0.0,6.5,87,0.00,,,0.00,Rainwise IP-100,2013-03-19 17:43:00,
2013-03-19 13:49:00,30.1,28.0,29.40,WSW,247,0.0,4.0,88,0.00,,,0.00,Rainwise IP-100,2013-03-19 17:49:00,
2013-03-19 13:54:00,30.1,28.0,29.40,West,270,0.0,1.9,89,0.00,,,0.00,Rainwise IP-100,2013-03-19 17:54:00,
2013-03-19 13:59:00,30.1,28.0,29.41,West,270,1.6,2.1,88,0.00,,,0.00,Rainwise IP-100,2013-03-19 17:59:00,
2013-03-19 14:04:00,30.1,28.0,29.41,West,270,0.0,1.9,88,0.00,,,0.00,Rainwise IP-100,2013-03-19 18:04:00,
2013-03-19 14:09:00,30.1,28.0,29.41,West,270,0.0,1.2,89,0.00,,,0.00,Rainwise IP-100,2013-03-19 18:09:00,
2013-03-19 14:14:00,30.1,28.0,29.41,SW,225,2.3,3.7,89,0.00,,,0.00,Rainwise IP-100,2013-03-19 18:14:00,
2013-03-19 14:19:00,30.1,28.0,29.40,SSE,157,0.0,2.8,90,0.00,,,0.00,Rainwise IP-100,2013-03-19 18:19:00,
2013-03-19 14:24:00,30.0,28.0,29.39,North,360,1.9,3.3,90,0.00,,,0.00,Rainwise IP-100,2013-03-19 18:24:00,
2013-03-19 14:29:00,29.8,28.0,29.38,NE,45,3.5,4.0,91,0.00,,,0.00,Rainwise IP-100,2013-03-19 18:29:00,
2013-03-19 14:34:00,29.5,29.0,29.37,NE,45,4.2,6.8,92,0.00,,,0.00,Rainwise IP-100,2013-03-19 18:34:00,
2013-03-19 14:39:00,29.3,28.0,29.37,ESE,112,1.9,7.2,93,0.00,,,0.00,Rainwise IP-100,2013-03-19 18:39:00,
2013-03-19 14:44:00,29.2,28.0,29.35,ENE,67,3.3,5.4,93,0.00,,,0.00,Rainwise IP-100,2013-03-19 18:44:00,
2013-03-19 14:49:00,29.3,28.0,29.35,West,270,0.0,4.4,94,0.00,,,0.00,Rainwise IP-100,2013-03-19 18:49:00,
2013-03-19 14:54:00,29.3,28.0,29.35,East,90,5.4,6.1,94,0.00,,,0.00,Rainwise IP-100,2013-03-19 18:54:00,
2013-03-19 14:59:00,29.4,28.0,29.34,ENE,67,0.0,5.8,94,0.00,,,0.00,Rainwise IP-100,2013-03-19 18:59:00,
2013-03-19 15:05:00,29.6,29.0,29.33,NNE,22,3.3,4.2,94,0.00,,,0.00,Rainwise IP-100,2013-03-19 19:05:00,
2013-03-19 15:10:00,29.7,29.0,29.33,NNW,337,2.3,5.4,94,0.00,,,0.00,Rainwise IP-100,2013-03-19 19:10:00,
2013-03-19 15:15:00,29.8,29.0,29.33,NNW,337,2.6,6.1,95,0.00,,,0.00,Rainwise IP-100,2013-03-19 19:15:00,
2013-03-19 15:20:00,29.9,29.0,29.32,NNW,337,2.1,4.0,95,0.00,,,0.00,Rainwise IP-100,2013-03-19 19:20:00,
2013-03-19 15:25:00,29.9,29.0,29.31,North,360,2.3,5.6,95,0.00,,,0.00,Rainwise IP-100,2013-03-19 19:25:00,
2013-03-19 15:30:00,29.9,29.0,29.31,North,360,5.6,6.8,95,0.00,,,0.00,Rainwise IP-100,2013-03-19 19:30:00,
2013-03-19 15:35:00,29.9,29.0,29.32,NW,315,8.9,8.9,95,0.00,,,0.00,Rainwise IP-100,2013-03-19 19:35:00,
2013-03-19 15:40:00,29.7,29.0,29.31,NE,45,5.1,13.5,95,0.00,,,0.00,Rainwise IP-100,2013-03-19 19:40:00,
2013-03-19 15:45:00,29.4,28.0,29.32,NNE,22,4.2,11.0,95,0.00,,,0.00,Rainwise IP-100,2013-03-19 19:45:00,
2013-03-19 15:50:00,29.2,28.0,29.31,North,360,7.5,11.7,95,0.00,,,0.00,Rainwise IP-100,2013-03-19 19:50:00,
2013-03-19 15:55:00,29.2,28.0,29.33,NNW,337,4.7,10.3,95,0.00,,,0.00,Rainwise IP-100,2013-03-19 19:55:00,
2013-03-19 16:00:00,29.2,28.0,29.33,NNE,22,4.2,9.6,94,0.00,,,0.00,Rainwise IP-100,2013-03-19 20:00:00,
2013-03-19 16:05:00,29.1,28.0,29.32,ENE,67,2.8,6.5,94,0.00,,,0.00,Rainwise IP-100,2013-03-19 20:05:00,
2013-03-19 16:10:00,29.1,28.0,29.32,North,360,1.9,5.8,95,0.00,,,0.00,Rainwise IP-100,2013-03-19 20:10:00,
2013-03-19 16:15:00,29.1,28.0,29.32,NNE,22,3.5,6.3,95,0.00,,,0.00,Rainwise IP-100,2013-03-19 20:15:00,
2013-03-19 16:21:00,29.0,28.0,29.32,NNW,337,1.6,8.2,95,0.00,,,0.00,Rainwise IP-100,2013-03-19 20:21:00,
2013-03-19 16:26:00,29.0,28.0,29.31,NNE,22,2.8,5.6,95,0.00,,,0.00,Rainwise IP-100,2013-03-19 20:26:00,
2013-03-19 16:31:00,29.0,28.0,29.31,NNE,22,2.6,6.8,95,0.00,,,0.00,Rainwise IP-100,2013-03-19 20:31:00,
2013-03-19 16:36:00,29.0,28.0,29.31,ENE,67,2.6,7.0,95,0.00,,,0.00,Rainwise IP-100,2013-03-19 20:36:00,
2013-03-19 16:41:00,29.0,28.0,29.31,NNE,22,5.8,9.3,95,0.00,,,0.00,Rainwise IP-100,2013-03-19 20:41:00,
2013-03-19 16:46:00,29.1,28.0,29.30,ENE,67,7.0,10.5,94,0.00,,,0.00,Rainwise IP-100,2013-03-19 20:46:00,
2013-03-19 16:51:00,29.1,28.0,29.31,NNE,22,6.3,10.3,93,0.00,,,0.00,Rainwise IP-100,2013-03-19 20:51:00,
2013-03-19 16:56:00,29.1,28.0,29.30,NE,45,4.0,11.0,92,0.00,,,0.00,Rainwise IP-100,2013-03-19 20:56:00,
2013-03-19 17:01:00,29.2,28.0,29.30,NNE,22,4.9,7.2,91,0.00,,,0.00,Rainwise IP-100,2013-03-19 21:01:00,
2013-03-19 17:06:00,29.3,28.0,29.30,North,360,4.0,8.2,91,0.00,,,0.00,Rainwise IP-100,2013-03-19 21:06:00,
2013-03-19 17:11:00,29.3,26.0,29.31,ENE,67,2.8,9.6,90,0.00,,,0.00,Rainwise IP-100,2013-03-19 21:11:00,
2013-03-19 17:17:00,29.2,26.0,29.30,ENE,67,6.5,10.3,90,0.00,,,0.00,Rainwise IP-100,2013-03-19 21:17:00,
2013-03-19 17:22:00,29.1,26.0,29.30,ENE,67,7.9,11.7,89,0.00,,,0.00,Rainwise IP-100,2013-03-19 21:22:00,
2013-03-19 17:27:00,28.9,26.0,29.31,ENE,67,4.0,9.8,89,0.00,,,0.00,Rainwise IP-100,2013-03-19 21:27:00,
2013-03-19 17:32:00,28.8,26.0,29.31,NNE,22,5.1,7.7,89,0.00,,,0.00,Rainwise IP-100,2013-03-19 21:32:00,
2013-03-19 17:37:00,28.7,26.0,29.30,NNE,22,4.2,6.8,89,0.00,,,0.00,Rainwise IP-100,2013-03-19 21:37:00,
2013-03-19 17:42:00,28.5,26.0,29.30,North,360,5.1,7.7,90,0.00,,,0.00,Rainwise IP-100,2013-03-19 21:42:00,
2013-03-19 17:47:00,28.3,26.0,29.30,NNE,22,3.7,7.0,90,0.00,,,0.00,Rainwise IP-100,2013-03-19 21:47:00,
2013-03-19 17:52:00,28.2,26.0,29.30,North,360,3.3,7.9,91,0.00,,,0.00,Rainwise IP-100,2013-03-19 21:52:00,
2013-03-19 17:57:00,28.0,26.0,29.31,NNE,22,1.6,4.7,91,0.00,,,0.00,Rainwise IP-100,2013-03-19 21:57:00,
2013-03-19 18:02:00,27.9,26.0,29.30,NNW,337,4.2,5.6,92,0.00,,,0.00,Rainwise IP-100,2013-03-19 22:02:00,
2013-03-19 18:07:00,27.9,26.0,29.30,North,360,4.0,6.3,92,0.00,,,0.00,Rainwise IP-100,2013-03-19 22:07:00,
2013-03-19 18:12:00,27.9,26.0,29.31,NNE,22,1.6,5.8,92,0.00,,,0.00,Rainwise IP-100,2013-03-19 22:12:00,
2013-03-19 18:17:00,27.8,26.0,29.31,North,360,3.0,4.9,92,0.00,,,0.00,Rainwise IP-100,2013-03-19 22:17:00,
2013-03-19 18:22:00,27.8,26.0,29.31,NNW,337,2.6,4.7,92,0.00,,,0.00,Rainwise IP-100,2013-03-19 22:22:00,
2013-03-19 18:27:00,27.7,26.0,29.31,NNW,337,1.6,4.4,92,0.00,,,0.00,Rainwise IP-100,2013-03-19 22:27:00,
2013-03-19 18:33:00,27.7,26.0,29.31,NNE,22,3.3,5.1,92,0.00,,,0.00,Rainwise IP-100,2013-03-19 22:33:00,
2013-03-19 18:38:00,27.6,26.0,29.31,NNW,337,1.9,4.2,92,0.00,,,0.00,Rainwise IP-100,2013-03-19 22:38:00,
2013-03-19 18:43:00,27.6,26.0,29.31,ENE,67,7.2,11.2,92,0.00,,,0.00,Rainwise IP-100,2013-03-19 22:43:00,
2013-03-19 18:48:00,27.8,26.0,29.31,NE,45,2.1,7.5,92,0.00,,,0.00,Rainwise IP-100,2013-03-19 22:48:00,
2013-03-19 18:53:00,28.0,26.0,29.31,ENE,67,1.9,6.3,90,0.00,,,0.00,Rainwise IP-100,2013-03-19 22:53:00,
2013-03-19 18:58:00,28.0,26.0,29.31,SSE,157,2.1,5.6,90,0.00,,,0.00,Rainwise IP-100,2013-03-19 22:58:00,
2013-03-19 19:03:00,28.0,24.0,29.31,NNE,22,2.8,5.6,89,0.00,,,0.00,Rainwise IP-100,2013-03-19 23:03:00,
2013-03-19 19:08:00,28.1,24.0,29.31,East,90,0.0,6.5,88,0.00,,,0.00,Rainwise IP-100,2013-03-19 23:08:00,
2013-03-19 19:13:00,28.1,24.0,29.31,SSE,157,1.2,4.9,88,0.00,,,0.00,Rainwise IP-100,2013-03-19 23:13:00,
2013-03-19 19:18:00,28.0,24.0,29.31,SW,225,0.0,3.7,88,0.00,,,0.00,Rainwise IP-100,2013-03-19 23:18:00,
2013-03-19 19:23:00,28.0,24.0,29.31,NW,315,0.0,1.2,88,0.00,,,0.00,Rainwise IP-100,2013-03-19 23:23:00,
2013-03-19 19:28:00,27.9,24.0,29.31,ESE,112,0.0,3.5,88,0.00,,,0.00,Rainwise IP-100,2013-03-19 23:28:00,
2013-03-19 19:33:00,27.8,24.0,29.31,SSW,202,0.0,4.4,88,0.00,,,0.00,Rainwise IP-100,2013-03-19 23:33:00,
2013-03-19 19:38:00,27.8,24.0,29.31,SSW,202,0.0,1.2,88,0.00,,,0.00,Rainwise IP-100,2013-03-19 23:38:00,
2013-03-19 19:43:00,27.7,24.0,29.31,SSW,202,0.0,1.4,88,0.00,,,0.00,Rainwise IP-100,2013-03-19 23:43:00,
2013-03-19 19:49:00,27.7,24.0,29.31,SSW,202,0.0,0.0,88,0.00,,,0.00,Rainwise IP-100,2013-03-19 23:49:00,
2013-03-19 19:54:00,27.6,24.0,29.31,ESE,112,1.9,3.5,88,0.00,,,0.00,Rainwise IP-100,2013-03-19 23:54:00,
2013-03-19 19:59:00,27.5,24.0,29.31,WSW,247,0.0,2.6,88,0.00,,,0.00,Rainwise IP-100,2013-03-19 23:59:00,
2013-03-19 20:04:00,27.5,24.0,29.31,WSW,247,2.3,2.8,89,0.00,,,0.00,Rainwise IP-100,2013-03-20 00:04:00,
2013-03-19 20:09:00,27.4,24.0,29.31,SW,225,2.1,2.6,89,0.00,,,0.00,Rainwise IP-100,2013-03-20 00:09:00,
2013-03-19 20:14:00,27.3,24.0,29.31,SW,225,0.0,2.3,89,0.00,,,0.00,Rainwise IP-100,2013-03-20 00:14:00,
2013-03-19 20:19:00,27.3,24.0,29.31,SW,225,1.2,2.3,89,0.00,,,0.00,Rainwise IP-100,2013-03-20 00:19:00,
2013-03-19 20:24:00,27.2,26.0,29.31,SW,225,1.6,2.6,90,0.00,,,0.00,Rainwise IP-100,2013-03-20 00:24:00,
2013-03-19 20:29:00,27.2,24.0,29.31,WSW,247,0.0,2.1,89,0.00,,,0.00,Rainwise IP-100,2013-03-20 00:29:00,
2013-03-19 20:34:00,27.2,24.0,29.31,WNW,292,1.4,2.6,89,0.00,,,0.00,Rainwise IP-100,2013-03-20 00:34:00,
2013-03-19 20:39:00,27.2,24.0,29.31,WSW,247,4.2,4.2,89,0.00,,,0.00,Rainwise IP-100,2013-03-20 00:39:00,
2013-03-19 20:44:00,27.1,26.0,29.31,SW,225,0.0,4.4,90,0.00,,,0.00,Rainwise IP-100,2013-03-20 00:44:00,
2013-03-19 20:49:00,27.0,26.0,29.31,SW,225,0.0,1.4,90,0.00,,,0.00,Rainwise IP-100,2013-03-20 00:49:00,
2013-03-19 20:54:00,27.0,26.0,29.31,SW,225,0.0,2.1,91,0.00,,,0.00,Rainwise IP-100,2013-03-20 00:54:00,
2013-03-19 20:59:00,27.1,26.0,29.31,SW,225,0.0,2.1,91,0.00,,,0.00,Rainwise IP-100,2013-03-20 00:59:00,
2013-03-19 21:05:00,27.0,26.0,29.31,SW,225,2.1,3.0,91,0.00,,,0.00,Rainwise IP-100,2013-03-20 01:05:00,
2013-03-19 21:10:00,26.9,26.0,29.31,SW,225,0.0,2.8,92,0.00,,,0.00,Rainwise IP-100,2013-03-20 01:10:00,
2013-03-19 21:15:00,26.9,26.0,29.31,SW,225,1.4,2.3,92,0.00,,,0.00,Rainwise IP-100,2013-03-20 01:15:00,
2013-03-19 21:20:00,26.8,26.0,29.31,SW,225,2.8,3.7,93,0.00,,,0.00,Rainwise IP-100,2013-03-20 01:20:00,
2013-03-19 21:25:00,26.7,26.0,29.31,SW,225,1.9,4.2,93,0.00,,,0.00,Rainwise IP-100,2013-03-20 01:25:00,
2013-03-19 21:30:00,26.6,26.0,29.31,SW,225,1.4,3.0,93,0.00,,,0.00,Rainwise IP-100,2013-03-20 01:30:00,
2013-03-19 21:35:00,26.6,26.0,29.31,SW,225,1.9,2.8,93,0.00,,,0.00,Rainwise IP-100,2013-03-20 01:35:00,
2013-03-19 21:40:00,26.6,26.0,29.31,SW,225,3.5,4.7,93,0.00,,,0.00,Rainwise IP-100,2013-03-20 01:40:00,
2013-03-19 21:45:00,26.6,26.0,29.32,SSW,202,2.6,4.0,93,0.00,,,0.00,Rainwise IP-100,2013-03-20 01:45:00,
2013-03-19 21:50:00,26.6,26.0,29.31,SW,225,3.0,4.7,93,0.00,,,0.00,Rainwise IP-100,2013-03-20 01:50:00,
2013-03-19 21:55:00,26.5,26.0,29.31,SW,225,4.9,5.6,93,0.00,,,0.00,Rainwise IP-100,2013-03-20 01:55:00,
2013-03-19 22:00:00,26.5,26.0,29.32,WSW,247,2.8,5.1,93,0.00,,,0.00,Rainwise IP-100,2013-03-20 02:00:00,
2013-03-19 22:05:00,26.5,26.0,29.32,SW,225,2.3,4.2,94,0.00,,,0.00,Rainwise IP-100,2013-03-20 02:05:00,
2013-03-19 22:10:00,26.5,26.0,29.32,SW,225,0.0,2.6,94,0.00,,,0.00,Rainwise IP-100,2013-03-20 02:10:00,
2013-03-19 22:16:00,26.5,26.0,29.31,SW,225,0.0,0.0,94,0.00,,,0.00,Rainwise IP-100,2013-03-20 02:16:00,
2013-03-19 22:21:00,26.5,26.0,29.31,SW,225,0.0,0.0,94,0.00,,,0.00,Rainwise IP-100,2013-03-20 02:21:00,
2013-03-19 22:26:00,26.5,26.0,29.31,SW,225,1.4,2.1,94,0.00,,,0.00,Rainwise IP-100,2013-03-20 02:26:00,
2013-03-19 22:31:00,26.4,24.0,29.31,SW,225,0.0,1.9,94,0.00,,,0.00,Rainwise IP-100,2013-03-20 02:31:00,
2013-03-19 22:36:00,26.4,24.0,29.31,SW,225,0.0,0.0,94,0.00,,,0.00,Rainwise IP-100,2013-03-20 02:36:00,
2013-03-19 22:41:00,26.5,26.0,29.31,SW,225,0.0,0.0,94,0.00,,,0.00,Rainwise IP-100,2013-03-20 02:41:00,
2013-03-19 22:46:00,26.3,24.0,29.31,SW,225,0.0,0.0,95,0.00,,,0.00,Rainwise IP-100,2013-03-20 02:46:00,
2013-03-19 22:51:00,26.2,24.0,29.31,SW,225,0.0,0.0,95,0.00,,,0.00,Rainwise IP-100,2013-03-20 02:51:00,
2013-03-19 22:56:00,26.1,24.0,29.31,SW,225,0.0,0.0,95,0.00,,,0.00,Rainwise IP-100,2013-03-20 02:56:00,
2013-03-19 23:01:00,26.1,24.0,29.30,SW,225,0.0,0.0,95,0.00,,,0.00,Rainwise IP-100,2013-03-20 03:01:00,
2013-03-19 23:06:00,26.1,24.0,29.30,SW,225,0.0,0.0,95,0.00,,,0.00,Rainwise IP-100,2013-03-20 03:06:00,
2013-03-19 23:11:00,26.1,24.0,29.30,SW,225,0.0,0.0,96,0.00,,,0.00,Rainwise IP-100,2013-03-20 03:11:00,
2013-03-19 23:17:00,26.1,24.0,29.30,SW,225,0.0,0.0,96,0.00,,,0.00,Rainwise IP-100,2013-03-20 03:17:00,
2013-03-19 23:22:00,26.1,24.0,29.30,SW,225,0.0,0.0,96,0.00,,,0.00,Rainwise IP-100,2013-03-20 03:22:00,
2013-03-19 23:27:00,26.1,24.0,29.30,SW,225,0.0,0.0,96,0.00,,,0.00,Rainwise IP-100,2013-03-20 03:27:00,
2013-03-19 23:32:00,26.1,24.0,29.29,SW,225,0.0,0.0,96,0.00,,,0.00,Rainwise IP-100,2013-03-20 03:32:00,
2013-03-19 23:37:00,26.1,24.0,29.30,SW,225,0.0,0.0,96,0.00,,,0.00,Rainwise IP-100,2013-03-20 03:37:00,
2013-03-19 23:42:00,26.0,24.0,29.29,SW,225,0.0,0.0,96,0.00,,,0.00,Rainwise IP-100,2013-03-20 03:42:00,
2013-03-19 23:47:00,26.0,24.0,29.28,SW,225,0.0,0.0,96,0.00,,,0.00,Rainwise IP-100,2013-03-20 03:47:00,
2013-03-19 23:52:00,26.0,26.0,29.28,SW,225,0.0,0.0,97,0.00,,,0.00,Rainwise IP-100,2013-03-20 03:52:00,
2013-03-19 23:57:00,26.0,26.0,29.28,SW,225,0.0,0.0,97,0.00,,,0.00,Rainwise IP-100,2013-03-20 03:57:00,